When you browse on this site, cookies collect data to enhance your experience and personalize the content and advertising you see.
Visit our Privacy Policy to learn more. By continuing to use the site, you agree to this use of cookies and data.
  • In France
  • List of Countries
  • For 7 days
  • Water Temperature
  • Satellite Maps
  • Weather Map
  • Weather Widgets
  • user-avatar
    Login

    Hourly Weather Milinow

    Today, 24 January, Thursday

    Time Temperature Precipitation Wind Pressure Humidity
    00:00 -8°C° 0 mm 4 mps 748 mmHg 69%
    01:00 -9°C° 0 mm 4 mps 748 mmHg 69%
    02:00 -9°C° 0 mm 4 mps 749 mmHg 69%
    03:00 -9°C° 0 mm 4 mps 749 mmHg 69%
    04:00 -9°C° 0 mm 4 mps 749 mmHg 69%
    05:00 -9°C° 0 mm 4 mps 749 mmHg 70%
    06:00 -9°C° 0 mm 4 mps 749 mmHg 70%
    07:00 -9°C° 0 mm 4 mps 750 mmHg 70%
    08:00 -9°C° 0 mm 4 mps 750 mmHg 69%
    09:00 -10°C° 0 mm 5 mps 750 mmHg 68%
    10:00 -8°C° 0 mm 5 mps 750 mmHg 67%
    11:00 -8°C° 0 mm 5 mps 750 mmHg 65%
    12:00 -8°C° 0 mm 5 mps 750 mmHg 63%
    13:00 -7°C° 0 mm 5 mps 750 mmHg 61%
    14:00 -7°C° 0 mm 5 mps 750 mmHg 61%
    15:00 -7°C° 0 mm 5 mps 750 mmHg 61%
    16:00 -8°C° 0 mm 5 mps 751 mmHg 62%
    17:00 -8°C° 0 mm 5 mps 751 mmHg 63%
    18:00 -8°C° 0 mm 5 mps 751 mmHg 64%
    19:00 -8°C° 0 mm 5 mps 751 mmHg 65%
    20:00 -8°C° 0 mm 5 mps 751 mmHg 67%
    21:00 -8°C° 0 mm 5 mps 751 mmHg 69%
    22:00 -8°C° 0 mm 5 mps 751 mmHg 70%
    23:00 -8°C° 0 mm 4 mps 751 mmHg 70%

    Tomorrow, 25 January, Friday

    Time Temperature Precipitation Wind Pressure Humidity
    00:00 -8°C° 0 mm 4 mps 751 mmHg 70%
    01:00 -8°C° 0 mm 4 mps 751 mmHg 70%
    02:00 -9°C° 0 mm 4 mps 751 mmHg 70%
    03:00 -9°C° 0 mm 4 mps 751 mmHg 71%
    04:00 -9°C° 0 mm 4 mps 751 mmHg 72%
    05:00 -8°C° 0.1 mm 3 mps 751 mmHg 74%
    06:00 -8°C° 0.1 mm 3 mps 751 mmHg 77%
    07:00 -8°C° 0.1 mm 3 mps 751 mmHg 79%
    08:00 -8°C° 0.1 mm 3 mps 751 mmHg 79%
    09:00 -6°C° 0.1 mm 2 mps 751 mmHg 78%
    10:00 -6°C° 0.1 mm 2 mps 751 mmHg 78%
    11:00 -4°C° 0.1 mm 1 mps 751 mmHg 76%
    12:00 -4°C° 0.1 mm 1 mps 751 mmHg 75%
    13:00 -4°C° 0.1 mm 0 mps 751 mmHg 73%
    14:00 -3°C° 0.1 mm 1 mps 751 mmHg 74%
    15:00 -3°C° 0.1 mm 1 mps 751 mmHg 75%
    16:00 -5°C° 0.1 mm 2 mps 751 mmHg 75%
    17:00 -5°C° 0 mm 2 mps 751 mmHg 75%
    18:00 -5°C° 0 mm 2 mps 751 mmHg 75%
    19:00 -6°C° 0 mm 3 mps 751 mmHg 75%
    20:00 -6°C° 0 mm 3 mps 751 mmHg 75%
    21:00 -7°C° 0 mm 3 mps 751 mmHg 75%
    22:00 -8°C° 0 mm 4 mps 751 mmHg 75%
    23:00 -8°C° 0 mm 4 mps 751 mmHg 74%

    Day after tomorrow, 26 January, Saturday

    Time Temperature Precipitation Wind Pressure Humidity
    00:00 -8°C° 0 mm 4 mps 750 mmHg 74%
    01:00 -7°C° 0 mm 3 mps 750 mmHg 74%
    02:00 -8°C° 0 mm 4 mps 749 mmHg 73%
    03:00 -8°C° 0 mm 4 mps 749 mmHg 73%
    04:00 -8°C° 0 mm 4 mps 748 mmHg 72%
    05:00 -8°C° 0.1 mm 4 mps 747 mmHg 75%
    06:00 -8°C° 0.1 mm 4 mps 746 mmHg 78%
    07:00 -8°C° 0.1 mm 5 mps 745 mmHg 81%
    08:00 -7°C° 0.7 mm 5 mps 745 mmHg 85%
    09:00 -7°C° 0.7 mm 5 mps 744 mmHg 89%
    10:00 -6°C° 0.7 mm 6 mps 743 mmHg 93%
    11:00 -5°C° 0.6 mm 5 mps 742 mmHg 93%
    12:00 -4°C° 0.6 mm 5 mps 742 mmHg 92%
    13:00 -2°C° 0.6 mm 4 mps 741 mmHg 92%
    14:00 -2°C° 0 mm 4 mps 741 mmHg 93%
    15:00 -2°C° 0 mm 4 mps 741 mmHg 94%
    16:00 -1°C° 0 mm 3 mps 741 mmHg 94%
    17:00 -1°C° 0 mm 3 mps 741 mmHg 94%
    18:00 -1°C° 0 mm 3 mps 741 mmHg 94%
    19:00 -1°C° 0 mm 3 mps 742 mmHg 94%
    20:00 -1°C° 0.3 mm 3 mps 742 mmHg 95%
    21:00 -2°C° 0.3 mm 4 mps 742 mmHg 95%
    22:00 -2°C° 0.3 mm 4 mps 743 mmHg 95%
    23:00 -1°C° 0 mm 3 mps 743 mmHg 96%

    27 January, Sunday

    Time Temperature Precipitation Wind Pressure Humidity
    00:00 -1°C° 0 mm 2 mps 743 mmHg 97%
    01:00 -1°C° 0 mm 2 mps 743 mmHg 97%
    02:00 +1°C° 0 mm 1 mps 743 mmHg 97%
    03:00 0°C° 0 mm 1 mps 743 mmHg 97%
    04:00 0°C° 0 mm 1 mps 742 mmHg 97%
    05:00 0°C° 0.1 mm 1 mps 742 mmHg 97%
    06:00 -2°C° 0.1 mm 2 mps 742 mmHg 96%
    07:00 -2°C° 0.1 mm 3 mps 742 mmHg 96%
    08:00 -2°C° 0.2 mm 3 mps 741 mmHg 96%
    09:00 -2°C° 0.2 mm 4 mps 741 mmHg 96%
    10:00 -2°C° 0.2 mm 4 mps 741 mmHg 96%
    11:00 -2°C° 0.6 mm 4 mps 740 mmHg 97%
    12:00 -1°C° 0.6 mm 4 mps 740 mmHg 98%
    13:00 0°C° 0.6 mm 3 mps 739 mmHg 99%
    14:00 0°C° 0.1 mm 3 mps 739 mmHg 99%
    15:00 0°C° 0.1 mm 3 mps 738 mmHg 99%
    16:00 0°C° 0.1 mm 3 mps 738 mmHg 98%
    17:00 0°C° 0.1 mm 3 mps 738 mmHg 98%
    18:00 0°C° 0.1 mm 3 mps 737 mmHg 97%
    19:00 0°C° 0.1 mm 3 mps 737 mmHg 96%
    20:00 0°C° 0 mm 3 mps 737 mmHg 94%
    21:00 0°C° 0 mm 3 mps 737 mmHg 93%
    22:00 -1°C° 0 mm 4 mps 736 mmHg 91%
    23:00 -1°C° 0.1 mm 4 mps 736 mmHg 91%

    28 January, Monday

    Time Temperature Precipitation Wind Pressure Humidity
    00:00 0°C° 0.1 mm 3 mps 736 mmHg 90%
    01:00 0°C° 0.1 mm 3 mps 736 mmHg 90%
    02:00 0°C° 0.2 mm 3 mps 735 mmHg 90%
    03:00 -1°C° 0.2 mm 4 mps 735 mmHg 91%
    04:00 -1°C° 0.2 mm 4 mps 735 mmHg 91%
    05:00 -1°C° 0 mm 4 mps 735 mmHg 92%
    06:00 0°C° 0 mm 3 mps 735 mmHg 92%
    07:00 -1°C° 0 mm 3 mps 734 mmHg 93%
    08:00 -1°C° 0 mm 3 mps 735 mmHg 92%
    09:00 0°C° 0 mm 3 mps 735 mmHg 92%
    10:00 0°C° 0 mm 3 mps 735 mmHg 92%
    11:00 0°C° 0 mm 3 mps 735 mmHg 94%
    12:00 0°C° 0 mm 3 mps 734 mmHg 96%
    13:00 +1°C° 0 mm 2 mps 734 mmHg 98%
    14:00 0°C° 0.2 mm 3 mps 734 mmHg 98%
    15:00 0°C° 0.2 mm 3 mps 734 mmHg 97%
    16:00 0°C° 0.2 mm 3 mps 734 mmHg 96%
    17:00 0°C° 0.2 mm 3 mps 734 mmHg 95%
    18:00 0°C° 0.2 mm 3 mps 734 mmHg 94%
    19:00 0°C° 0.2 mm 3 mps 734 mmHg 93%
    20:00 0°C° 0 mm 3 mps 734 mmHg 92%
    21:00 0°C° 0 mm 3 mps 734 mmHg 92%
    22:00 0°C° 0 mm 3 mps 735 mmHg 91%
    23:00 -1°C° 0 mm 4 mps 735 mmHg 92%

    29 January, Tuesday

    Time Temperature Precipitation Wind Pressure Humidity
    00:00 -1°C° 0 mm 4 mps 735 mmHg 93%
    01:00 -1°C° 0 mm 4 mps 735 mmHg 94%
    02:00 -1°C° 0.2 mm 5 mps 736 mmHg 94%
    03:00 -1°C° 0.2 mm 5 mps 736 mmHg 95%
    04:00 -2°C° 0.2 mm 6 mps 736 mmHg 95%
    05:00 -2°C° 0.2 mm 6 mps 737 mmHg 94%
    06:00 -2°C° 0.2 mm 7 mps 738 mmHg 92%
    07:00 -2°C° 0.2 mm 7 mps 739 mmHg 90%
    08:00 -3°C° 0.1 mm 7 mps 740 mmHg 88%
    09:00 -3°C° 0.1 mm 7 mps 741 mmHg 85%
    10:00 -3°C° 0.1 mm 7 mps 742 mmHg 83%
    11:00 -3°C° 0 mm 6 mps 743 mmHg 83%
    12:00 -3°C° 0 mm 6 mps 743 mmHg 82%
    13:00 -2°C° 0 mm 5 mps 743 mmHg 81%
    14:00 -2°C° 0 mm 5 mps 744 mmHg 83%
    15:00 -2°C° 0 mm 5 mps 744 mmHg 84%
    16:00 -1°C° 0 mm 5 mps 744 mmHg 86%
    17:00 -2°C° 0 mm 5 mps 744 mmHg 86%
    18:00 -2°C° 0 mm 4 mps 744 mmHg 86%
    19:00 -2°C° 0 mm 4 mps 745 mmHg 87%
    20:00 -3°C° 0 mm 4 mps 745 mmHg 87%
    21:00 -3°C° 0 mm 4 mps 745 mmHg 87%
    22:00 -3°C° 0 mm 4 mps 745 mmHg 88%
    23:00 -3°C° 0 mm 4 mps 745 mmHg 86%
    Show more